Date String (YYYY-MM-DD hh:mm:ss) UTC,Instrument flags,Ambient pressure (hPa),Sample flow (lpm),Bypass flow (lpm),Sample temperature (°C),Ambient temperature (°C),ASC tube jacket temperature (°C),LED temperature (°C),Box temperature (°C),Sample RH (%),Span deviation,Mass concentration (μg/m³),Mass concentration (μg/m³),Mass concentration (μg/m³)
DateTimeUTC,F1_M11,P_M11,Q1_M11,Q2_M11,T1_M11,T2_M11,T3_M11,T4_M11,T5_M11,U1_M11,ZSPAN_M11,X0_M11,X2_M11,X1_M11
2022-12-26 18:00:00,,0830.1,5.00,0.00,22.5,21.4,00.0,31.3,24.4,18.5,0000.0,0007.94,0005.47,0005.08
2022-12-26 18:01:00,,0830.2,4.96,0.00,22.5,21.5,00.0,31.3,24.4,18.7,0000.0,0007.97,0005.49,0005.11
2022-12-26 18:02:00,,0830.1,5.00,0.00,22.5,21.4,00.0,31.3,24.4,18.5,0000.0,0007.98,0005.50,0005.12
2022-12-26 18:03:00,,0830.1,5.03,0.00,22.5,21.4,00.0,31.3,24.3,18.8,0000.0,0008.40,0005.50,0005.13
2022-12-26 18:04:00,,0830.1,5.02,0.00,22.5,21.4,00.0,31.3,24.3,18.5,0000.0,0008.46,0005.48,0005.12
2022-12-26 18:05:00,,0830.1,4.99,0.00,22.5,21.4,00.0,31.3,24.3,18.5,0000.0,0008.78,0005.49,0005.12
2022-12-26 18:06:00,,0830.1,4.96,0.00,22.5,21.4,00.0,31.3,24.3,18.4,0000.0,0008.78,0005.48,0005.12
2022-12-26 18:07:00,,0830.1,5.02,0.00,22.5,21.3,00.0,31.3,24.3,18.3,0000.0,0008.81,0005.50,0005.14
2022-12-26 18:08:00,,0830.1,5.03,0.00,22.5,21.4,00.0,31.3,24.3,18.4,0000.0,0008.70,0005.47,0005.16
2022-12-26 18:09:00,,0830.1,4.98,0.00,22.5,21.4,00.0,31.3,24.3,18.2,0000.0,0008.62,0005.46,0005.17
2022-12-26 18:10:00,,0830.1,4.96,0.00,22.5,21.4,00.0,31.3,24.3,18.1,0000.0,0008.48,0005.44,0005.16
2022-12-26 18:11:00,,0829.9,5.02,0.00,22.5,21.4,00.0,31.3,24.3,18.5,0000.0,0008.52,0005.43,0005.15
2022-12-26 18:12:00,,0829.9,5.03,0.00,22.5,21.4,00.0,31.3,24.4,18.2,0000.0,0008.61,0005.41,0005.14
2022-12-26 18:13:00,,0829.9,5.01,0.00,22.5,21.4,00.0,31.4,24.4,18.1,0000.0,0008.62,0005.42,0005.15
2022-12-26 18:14:00,,0829.8,4.96,0.00,22.5,21.4,00.0,31.4,24.4,18.0,0000.0,0008.24,0005.42,0005.14
2022-12-26 18:15:00,,0829.9,5.01,0.00,22.5,21.4,00.0,31.4,24.4,18.2,0000.0,0008.08,0005.42,0005.15
2022-12-26 18:16:00,,0829.9,5.03,0.00,22.5,21.4,00.0,31.4,24.3,18.0,0000.0,0007.81,0005.40,0005.15
2022-12-26 18:17:00,,0829.8,5.01,0.00,22.5,21.3,00.0,31.4,24.3,18.1,0000.0,0007.79,0005.41,0005.14
2022-12-26 18:18:00,,0829.8,4.97,0.00,22.5,21.3,00.0,31.4,24.3,18.1,0000.0,0008.27,0005.40,0005.13
2022-12-26 18:19:00,,0829.8,4.99,0.00,22.5,21.3,00.0,31.4,24.3,18.2,0000.0,0008.35,0005.42,0005.13
2022-12-26 18:20:00,,0829.8,5.03,0.00,22.5,21.4,00.0,31.4,24.3,18.0,0000.0,0008.42,0005.44,0005.14
2022-12-26 18:21:00,,0829.8,5.03,0.00,22.5,21.4,00.0,31.4,24.4,18.4,0000.0,0008.39,0005.44,0005.15
2022-12-26 18:22:00,,0829.8,4.98,0.00,22.5,21.5,00.0,31.4,24.4,18.5,0000.0,0008.34,0005.41,0005.12
2022-12-26 18:23:00,,0829.8,4.97,0.00,22.6,21.5,00.0,31.4,24.4,18.2,0000.0,0008.18,0005.39,0005.09
2022-12-26 18:24:00,,0829.8,4.98,0.00,22.6,21.5,00.0,31.4,24.4,18.2,0000.0,0008.15,0005.33,0005.04
2022-12-26 18:25:00,,0829.7,5.02,0.00,22.6,21.5,00.0,31.4,24.5,18.1,0000.0,0008.07,0005.27,0005.00
2022-12-26 18:26:00,,0829.7,5.01,0.00,22.6,21.5,00.0,31.4,24.5,18.1,0000.0,0008.07,0005.24,0004.95
2022-12-26 18:27:00,,0829.8,4.98,0.00,22.6,21.6,00.0,31.4,24.5,18.2,0000.0,0008.03,0005.19,0004.90
2022-12-26 18:28:00,,0829.6,4.96,0.00,22.6,21.6,00.0,31.4,24.5,18.1,0000.0,0007.85,0005.14,0004.87
2022-12-26 18:29:00,,0829.5,5.00,0.00,22.7,21.7,00.0,31.5,24.5,18.1,0000.0,0007.46,0005.10,0004.83
2022-12-26 18:30:00,,0829.5,5.02,0.00,22.7,21.7,00.0,31.5,24.6,18.2,0000.0,0008.32,0005.05,0004.80
2022-12-26 18:31:00,,0829.5,4.98,0.00,22.7,21.7,00.0,31.5,24.6,17.9,0000.0,0008.74,0004.99,0004.75
2022-12-26 18:32:00,,0829.5,4.98,0.00,22.7,21.8,00.0,31.5,24.7,17.9,0000.0,0008.65,0004.92,0004.70
2022-12-26 18:33:00,,0829.5,4.97,0.00,22.8,21.8,00.0,31.5,24.7,17.7,0000.0,0008.66,0004.90,0004.68
2022-12-26 18:34:00,,0829.5,5.02,0.00,22.8,21.8,00.0,31.5,24.7,17.8,0000.0,0008.79,0004.90,0004.67
2022-12-26 18:35:00,,0829.5,5.04,0.00,22.8,21.9,00.0,31.6,24.7,18.0,0000.0,0008.96,0004.91,0004.68
2022-12-26 18:36:00,,0829.4,4.98,0.00,22.8,21.9,00.0,31.6,24.8,17.9,0000.0,0009.05,0004.94,0004.68
2022-12-26 18:37:00,,0829.4,4.98,0.00,22.9,21.9,00.0,31.6,24.8,17.5,0000.0,0009.02,0004.91,0004.66
2022-12-26 18:38:00,,0829.3,4.97,0.00,22.9,21.9,00.0,31.6,24.8,17.2,0000.0,0009.04,0004.88,0004.60
2022-12-26 18:39:00,,0829.3,5.03,0.00,22.9,21.9,00.0,31.6,24.8,17.2,0000.0,0009.06,0004.86,0004.56
2022-12-26 18:40:00,,0829.3,5.03,0.00,22.9,21.9,00.0,31.6,24.8,17.7,0000.0,0009.06,0004.82,0004.53
2022-12-26 18:41:00,,0829.3,4.99,0.00,22.9,21.9,00.0,31.6,24.8,17.2,0000.0,0008.56,0004.77,0004.47
2022-12-26 18:42:00,,0829.3,4.98,0.00,22.9,21.8,00.0,31.7,24.9,17.2,0000.0,0007.90,0004.71,0004.41
2022-12-26 18:43:00,,0829.3,4.99,0.00,22.9,21.9,00.0,31.7,24.9,17.2,0000.0,0007.98,0004.68,0004.38
2022-12-26 18:44:00,,0829.4,5.03,0.00,22.9,21.9,00.0,31.7,24.8,17.6,0000.0,0008.05,0004.67,0004.36
2022-12-26 18:45:00,,0829.2,4.99,0.00,22.9,21.9,00.0,31.7,24.9,17.8,0000.0,0008.38,0004.64,0004.33
2022-12-26 18:46:00,,0829.2,4.99,0.00,23.0,21.9,00.0,31.7,24.9,17.3,0000.0,0008.16,0004.57,0004.29
2022-12-26 18:47:00,,0829.3,4.96,0.00,23.0,22.0,00.0,31.7,24.9,17.5,0000.0,0008.07,0004.53,0004.25
2022-12-26 18:48:00,,0829.2,4.99,0.00,23.0,21.9,00.0,31.7,24.9,17.3,0000.0,0008.00,0004.49,0004.23
2022-12-26 18:49:00,,0829.0,5.04,0.00,23.0,21.9,00.0,31.8,24.9,17.2,0000.0,0007.96,0004.49,0004.24
2022-12-26 18:50:00,,0829.0,5.01,0.00,23.0,21.9,00.0,31.8,24.9,17.0,0000.0,0007.86,0004.46,0004.24
2022-12-26 18:51:00,,0829.0,4.98,0.00,23.0,21.9,00.0,31.8,24.9,17.0,0000.0,0007.82,0004.42,0004.22
2022-12-26 18:52:00,,0829.2,4.97,0.00,23.0,21.9,00.0,31.8,24.9,17.1,0000.0,0007.54,0004.40,0004.21
2022-12-26 18:53:00,,0829.2,5.03,0.00,23.0,21.9,00.0,31.8,24.9,16.7,0000.0,0007.55,0004.42,0004.22
2022-12-26 18:54:00,,0829.2,5.03,0.00,23.0,21.9,00.0,31.8,24.9,17.0,0000.0,0007.77,0004.46,0004.26
2022-12-26 18:55:00,,0829.2,4.99,0.00,23.0,21.9,00.0,31.8,24.9,16.9,0000.0,0007.64,0004.47,0004.27
2022-12-26 18:56:00,,0829.2,4.96,0.00,23.0,21.9,00.0,31.8,24.9,16.8,0000.0,0007.10,0004.48,0004.29
2022-12-26 18:57:00,,0829.2,4.99,0.00,23.0,21.9,00.0,31.8,24.9,17.0,0000.0,0007.09,0004.52,0004.32
2022-12-26 18:58:00,,0829.2,5.03,0.00,23.0,22.0,00.0,31.8,24.9,16.7,0000.0,0007.13,0004.54,0004.33
2022-12-26 18:59:00,,0829.1,5.01,0.00,23.0,22.0,00.0,31.8,24.9,16.7,0000.0,0007.20,0004.56,0004.35
